| time (UTC) | temp F | wind direction | speed MPH | gust MPH | rain 1hr in | rain 24hr in | rain mn in | humidity % | barometer mb |
| 20260508082551 | 56 | 331 | 1.0 | 2.0 | 0.00 | 0.00 | 0.00 | 46 | 1009.9 |
| 20260508082046 | 56 | 331 | 0.0 | 1.0 | 0.00 | 0.00 | 0.00 | 46 | 1010.0 |
| 20260508081543 | 56 | 331 | 0.0 | 1.0 | 0.00 | 0.00 | 0.00 | 45 | 1010.1 |
| 20260508081040 | 56 | 331 | 0.0 | 3.0 | 0.00 | 0.00 | 0.00 | 45 | 1010.0 |
| 20260508080548 | 56 | 331 | 2.0 | 3.0 | 0.00 | 0.00 | 0.00 | 46 | 1009.8 |
| 20260508080049 | 57 | 331 | 0.0 | 1.0 | 0.00 | 0.00 | 0.00 | 47 | 1010.2 |
| 20260508075546 | 57 | 331 | 0.0 | 1.0 | 0.00 | 0.00 | 0.00 | 47 | 1010.3 |
| 20260508075106 | 57 | 331 | 1.0 | 1.0 | 0.00 | 0.00 | 0.00 | 44 | 1010.2 |
| 20260508074543 | 57 | 331 | 0.0 | 2.0 | 0.00 | 0.00 | 0.00 | 45 | 1010.3 |
| 20260508074041 | 57 | 331 | 1.0 | 2.0 | 0.00 | 0.00 | 0.00 | 44 | 1010.3 |
| 20260508073539 | 57 | 331 | 1.0 | 3.0 | 0.00 | 0.00 | 0.00 | 43 | 1010.1 |
| 20260508073057 | 58 | 331 | 1.0 | 3.0 | 0.00 | 0.00 | 0.00 | 42 | 1010.1 |
| 20260508072535 | 58 | 331 | 0.0 | 1.0 | 0.00 | 0.00 | 0.00 | 42 | 1009.9 |
| 20260508072112 | 58 | 331 | 0.0 | 2.0 | 0.00 | 0.00 | 0.00 | 41 | 1009.8 |
| 20260508071549 | 58 | 331 | 1.0 | 2.0 | 0.00 | 0.00 | 0.00 | 40 | 1009.9 |
| 20260508071045 | 58 | 331 | 0.0 | 2.0 | 0.00 | 0.00 | 0.00 | 42 | 1009.9 |
| 20260508070552 | 58 | 331 | 0.0 | 2.0 | 0.00 | 0.00 | 0.00 | 40 | 1009.9 |
| 20260508070036 | 57 | 331 | 1.0 | 2.0 | 0.00 | 0.00 | 0.00 | 41 | 1009.8 |
| 20260508065532 | 57 | 331 | 0.0 | 1.0 | 0.00 | 0.00 | 0.00 | 43 | 1009.9 |
| 20260508065049 | 57 | 331 | 0.0 | 2.0 | 0.00 | 0.00 | 0.00 | 48 | 1010.1 |
| 20260508064547 | 57 | 331 | 0.0 | 2.0 | 0.00 | 0.00 | 0.00 | 44 | 1010.0 |
| 20260508064046 | 57 | 331 | 0.0 | 1.0 | 0.00 | 0.00 | 0.00 | 45 | 1010.2 |
| 20260508063542 | 57 | 331 | 0.0 | 1.0 | 0.00 | 0.00 | 0.00 | 43 | 1010.2 |
| 20260508063100 | 57 | 331 | 0.0 | 0.0 | 0.00 | 0.00 | 0.00 | 41 | 1010.3 |
| 20260508062537 | 57 | 331 | 0.0 | 0.0 | 0.00 | 0.00 | 0.00 | 41 | 1010.3 |
| 20260508062055 | 57 | 331 | 0.0 | 0.0 | 0.00 | 0.00 | 0.00 | 40 | 1010.3 |
| 20260508061610 | 58 | 331 | 0.0 | 0.0 | 0.00 | 0.00 | 0.00 | 40 | 1010.4 |
| 20260508061109 | 58 | 331 | 0.0 | 0.0 | 0.00 | 0.00 | 0.00 | 40 | 1010.3 |
| 20260508060556 | 58 | 331 | 0.0 | 1.0 | 0.00 | 0.00 | 0.00 | 39 | 1010.1 |
| 20260508060035 | 58 | 331 | 0.0 | 1.0 | 0.00 | 0.00 | 0.00 | 38 | 1010.0 |
| 20260508055533 | 59 | 331 | 0.0 | 2.0 | 0.00 | 0.00 | 0.00 | 38 | 1010.0 |
| 20260508055051 | 59 | 331 | 1.0 | 2.0 | 0.00 | 0.00 | 0.00 | 37 | 1009.9 |
| 20260508054549 | 59 | 331 | 1.0 | 2.0 | 0.00 | 0.00 | 0.00 | 38 | 1009.8 |
| 20260508054046 | 59 | 331 | 0.0 | 0.0 | 0.00 | 0.00 | 0.00 | 38 | 1009.9 |
| 20260508053545 | 59 | 331 | 0.0 | 1.0 | 0.00 | 0.00 | 0.00 | 38 | 1009.9 |
| 20260508053043 | 59 | 331 | 0.0 | 2.0 | 0.00 | 0.00 | 0.00 | 38 | 1009.9 |
| 20260508052541 | 59 | 331 | 1.0 | 2.0 | 0.00 | 0.00 | 0.00 | 38 | 1009.9 |
| 20260508052042 | 59 | 331 | 1.0 | 2.0 | 0.00 | 0.00 | 0.00 | 38 | 1009.9 |
| 20260508051559 | 59 | 331 | 0.0 | 2.0 | 0.00 | 0.00 | 0.00 | 39 | 1009.9 |
| 20260508051054 | 59 | 331 | 1.0 | 2.0 | 0.00 | 0.00 | 0.00 | 38 | 1009.9 |
| 20260508050555 | 59 | 331 | 1.0 | 1.0 | 0.00 | 0.00 | 0.00 | 39 | 1009.9 |
| 20260508050039 | 58 | 331 | 0.0 | 0.0 | 0.00 | 0.00 | 0.00 | 39 | 1010.1 |
| 20260508045535 | 58 | 331 | 0.0 | 1.0 | 0.00 | 0.00 | 0.00 | 39 | 1010.1 |
| 20260508045034 | 58 | 331 | 0.0 | 1.0 | 0.00 | 0.00 | 0.00 | 40 | 1010.3 |
| 20260508044548 | 58 | 331 | 0.0 | 1.0 | 0.00 | 0.00 | 0.00 | 40 | 1010.3 |
| 20260508044046 | 58 | 331 | 0.0 | 1.0 | 0.00 | 0.00 | 0.00 | 40 | 1010.3 |
| 20260508043541 | 58 | 331 | 0.0 | 0.0 | 0.00 | 0.00 | 0.00 | 40 | 1010.2 |
| 20260508043038 | 58 | 331 | 0.0 | 0.0 | 0.00 | 0.00 | 0.00 | 40 | 1010.3 |
| 20260508042532 | 58 | 331 | 0.0 | 1.0 | 0.00 | 0.00 | 0.00 | 39 | 1010.2 |
| 20260508042047 | 58 | 331 | 0.0 | 2.0 | 0.00 | 0.00 | 0.00 | 39 | 1010.1 |
| 20260508041604 | 58 | 331 | 0.0 | 2.0 | 0.00 | 0.00 | 0.00 | 40 | 1010.3 |
| 20260508041038 | 58 | 331 | 1.0 | 1.0 | 0.00 | 0.00 | 0.00 | 40 | 1010.3 |
| 20260508040608 | 59 | 331 | 0.0 | 1.0 | 0.00 | 0.00 | 0.00 | 40 | 1010.3 |
| 20260508040107 | 59 | 331 | 0.0 | 1.0 | 0.00 | 0.00 | 0.00 | 38 | 1010.1 |
| 20260508035543 | 59 | 331 | 0.0 | 1.0 | 0.00 | 0.00 | 0.00 | 38 | 1010.1 |
| 20260508035057 | 59 | 331 | 0.0 | 1.0 | 0.00 | 0.00 | 0.00 | 38 | 1010.2 |
| 20260508034544 | 59 | 331 | 0.0 | 1.0 | 0.00 | 0.00 | 0.00 | 38 | 1010.1 |
| 20260508034039 | 60 | 331 | 0.0 | 1.0 | 0.00 | 0.00 | 0.00 | 39 | 1010.1 |
| 20260508033535 | 60 | 331 | 0.0 | 1.0 | 0.00 | 0.00 | 0.00 | 37 | 1010.3 |
| 20260508033031 | 60 | 331 | 0.0 | 1.0 | 0.00 | 0.00 | 0.00 | 37 | 1010.3 |
| 20260508032532 | 60 | 331 | 0.0 | 1.0 | 0.00 | 0.00 | 0.00 | 39 | 1010.3 |
| 20260508032047 | 60 | 331 | 1.0 | 1.0 | 0.00 | 0.00 | 0.00 | 39 | 1010.3 |
| 20260508031543 | 60 | 331 | 0.0 | 1.0 | 0.00 | 0.00 | 0.00 | 38 | 1010.2 |
| 20260508031038 | 60 | 331 | 0.0 | 1.0 | 0.00 | 0.00 | 0.00 | 39 | 1010.2 |
| 20260508030606 | 60 | 331 | 0.0 | 1.0 | 0.00 | 0.00 | 0.00 | 39 | 1010.1 |
| 20260508030045 | 60 | 331 | 0.0 | 1.0 | 0.00 | 0.00 | 0.00 | 39 | 1010.1 |
| 20260508025540 | 60 | 331 | 0.0 | 1.0 | 0.00 | 0.00 | 0.00 | 39 | 1010.1 |
| 20260508025037 | 60 | 331 | 0.0 | 1.0 | 0.00 | 0.00 | 0.00 | 40 | 1010.1 |
| 20260508024533 | 60 | 331 | 0.0 | 1.0 | 0.00 | 0.00 | 0.00 | 40 | 1010.0 |
| 20260508024048 | 60 | 331 | 0.0 | 0.0 | 0.00 | 0.00 | 0.00 | 40 | 1010.0 |
| 20260508023606 | 61 | 331 | 0.0 | 0.0 | 0.00 | 0.00 | 0.00 | 40 | 1010.0 |
| 20260508023041 | 61 | 331 | 0.0 | 1.0 | 0.00 | 0.00 | 0.00 | 39 | 1010.0 |
| 20260508022557 | 61 | 331 | 0.0 | 1.0 | 0.00 | 0.00 | 0.00 | 39 | 1009.9 |
| 20260508022033 | 61 | 331 | 0.0 | 1.0 | 0.00 | 0.00 | 0.00 | 38 | 1009.8 |
| 20260508021610 | 62 | 331 | 0.0 | 1.0 | 0.00 | 0.00 | 0.00 | 37 | 1009.8 |
| 20260508021045 | 62 | 331 | 0.0 | 1.0 | 0.00 | 0.00 | 0.00 | 36 | 1009.6 |
| 20260508020554 | 63 | 331 | 0.0 | 1.0 | 0.00 | 0.00 | 0.00 | 36 | 1009.5 |
| 20260508020050 | 63 | 331 | 0.0 | 1.0 | 0.00 | 0.00 | 0.00 | 35 | 1009.5 |
| 20260508015546 | 63 | 331 | 0.0 | 1.0 | 0.00 | 0.00 | 0.00 | 35 | 1009.5 |
| 20260508015042 | 64 | 331 | 0.0 | 1.0 | 0.00 | 0.00 | 0.00 | 34 | 1009.4 |
| 20260508014537 | 64 | 331 | 0.0 | 1.0 | 0.00 | 0.00 | 0.00 | 33 | 1009.4 |
| 20260508014037 | 64 | 331 | 0.0 | 2.0 | 0.00 | 0.00 | 0.00 | 32 | 1009.4 |
| 20260508013533 | 65 | 331 | 0.0 | 2.0 | 0.00 | 0.00 | 0.00 | 32 | 1009.4 |
| 20260508013050 | 65 | 331 | 0.0 | 3.0 | 0.00 | 0.00 | 0.00 | 31 | 1009.3 |
| 20260508012605 | 66 | 331 | 1.0 | 3.0 | 0.00 | 0.00 | 0.00 | 31 | 1009.1 |
| 20260508012102 | 66 | 331 | 2.0 | 4.0 | 0.00 | 0.00 | 0.00 | 30 | 1009.1 |
| 20260508011536 | 67 | 331 | 2.0 | 6.0 | 0.00 | 0.00 | 0.00 | 30 | 1009.0 |
| 20260508011032 | 68 | 331 | 3.0 | 6.0 | 0.00 | 0.00 | 0.00 | 30 | 1009.0 |
| 20260508010602 | 68 | 328 | 2.0 | 4.0 | 0.00 | 0.00 | 0.00 | 29 | 1008.9 |
| 20260508010038 | 68 | 328 | 2.0 | 4.0 | 0.00 | 0.00 | 0.00 | 29 | 1008.9 |
| 20260508005536 | 68 | 337 | 2.0 | 4.0 | 0.00 | 0.00 | 0.00 | 31 | 1008.8 |
| 20260508005032 | 69 | 340 | 1.0 | 5.0 | 0.00 | 0.00 | 0.00 | 29 | 1008.7 |
| 20260508004548 | 69 | 340 | 2.0 | 5.0 | 0.00 | 0.00 | 0.00 | 30 | 1008.6 |
| 20260508004044 | 69 | 351 | 2.0 | 6.0 | 0.00 | 0.00 | 0.00 | 29 | 1008.6 |
| 20260508003559 | 69 | 324 | 3.0 | 5.0 | 0.00 | 0.00 | 0.00 | 29 | 1008.6 |
| 20260508003034 | 70 | 322 | 3.0 | 7.0 | 0.00 | 0.00 | 0.00 | 29 | 1008.6 |
| 20260508002550 | 70 | 309 | 3.0 | 9.0 | 0.00 | 0.00 | 0.00 | 28 | 1008.6 |
| 20260508002024 | 70 | 337 | 4.0 | 8.0 | 0.00 | 0.00 | 0.00 | 27 | 1008.6 |
| 20260508001043 | 70 | 344 | 4.0 | 8.0 | 0.00 | 0.00 | 0.00 | 27 | 1008.5 |
| 20260508000552 | 70 | 329 | 3.0 | 10.0 | 0.00 | 0.00 | 0.00 | 27 | 1008.5 |
| 20260508000048 | 71 | 278 | 3.0 | 10.0 | 0.00 | 0.00 | 0.00 | 28 | 1008.5 |
| 20260507235545 | 71 | 277 | 4.0 | 11.0 | 0.00 | 0.00 | 0.00 | 26 | 1008.4 |
| 20260507235102 | 71 | 280 | 5.0 | 11.0 | 0.00 | 0.00 | 0.00 | 24 | 1008.4 |
| 20260507234557 | 71 | 339 | 6.0 | 10.0 | 0.00 | 0.00 | 0.00 | 25 | 1008.4 |
| 20260507234050 | 71 | 319 | 3.0 | 7.0 | 0.00 | 0.00 | 0.00 | 26 | 1008.4 |
| 20260507233608 | 71 | 273 | 2.0 | 6.0 | 0.00 | 0.00 | 0.00 | 26 | 1008.5 |
| 20260507233043 | 71 | 346 | 3.0 | 10.0 | 0.00 | 0.00 | 0.00 | 25 | 1008.5 |
| 20260507232540 | 72 | 340 | 6.0 | 10.0 | 0.00 | 0.00 | 0.00 | 24 | 1008.6 |
| 20260507232037 | 72 | 318 | 6.0 | 9.0 | 0.00 | 0.00 | 0.00 | 25 | 1008.5 |
| 20260507231532 | 72 | 277 | 2.0 | 9.0 | 0.00 | 0.00 | 0.00 | 27 | 1008.5 |
| 20260507231050 | 72 | 334 | 3.0 | 9.0 | 0.00 | 0.00 | 0.00 | 27 | 1008.5 |
| 20260507230557 | 72 | 295 | 4.0 | 8.0 | 0.00 | 0.00 | 0.00 | 26 | 1008.5 |
| 20260507230038 | 72 | 312 | 3.0 | 5.0 | 0.00 | 0.00 | 0.00 | 27 | 1008.4 |
| 20260507225532 | 72 | 283 | 3.0 | 10.0 | 0.00 | 0.00 | 0.00 | 28 | 1008.5 |
| 20260507225047 | 72 | 266 | 6.0 | 10.0 | 0.00 | 0.00 | 0.00 | 26 | 1008.5 |
| 20260507224544 | 72 | 266 | 4.0 | 9.0 | 0.00 | 0.00 | 0.00 | 28 | 1008.5 |
| 20260507224039 | 72 | 278 | 5.0 | 9.0 | 0.00 | 0.00 | 0.00 | 26 | 1008.5 |
| 20260507223536 | 72 | 283 | 4.0 | 9.0 | 0.00 | 0.00 | 0.00 | 27 | 1008.6 |
| 20260507223052 | 72 | 272 | 4.0 | 9.0 | 0.00 | 0.00 | 0.00 | 27 | 1008.6 |
| 20260507222541 | 72 | 278 | 5.0 | 10.0 | 0.00 | 0.00 | 0.00 | 27 | 1008.6 |
| 20260507222037 | 72 | 253 | 6.0 | 10.0 | 0.00 | 0.00 | 0.00 | 26 | 1008.6 |
| 20260507221534 | 72 | 277 | 6.0 | 10.0 | 0.00 | 0.00 | 0.00 | 26 | 1008.5 |
| 20260507221031 | 72 | 354 | 5.0 | 11.0 | 0.00 | 0.00 | 0.00 | 26 | 1008.5 |
| 20260507220602 | 72 | 335 | 3.0 | 11.0 | 0.00 | 0.00 | 0.00 | 26 | 1008.5 |
| 20260507220101 | 72 | 253 | 4.0 | 11.0 | 0.00 | 0.00 | 0.00 | 27 | 1008.5 |
| 20260507215537 | 71 | 5 | 6.0 | 11.0 | 0.00 | 0.00 | 0.00 | 26 | 1008.5 |
| 20260507215033 | 72 | 360 | 6.0 | 11.0 | 0.00 | 0.00 | 0.00 | 26 | 1008.5 |
| 20260507214550 | 72 | 333 | 6.0 | 10.0 | 0.00 | 0.00 | 0.00 | 25 | 1008.5 |
| 20260507214046 | 72 | 238 | 4.0 | 8.0 | 0.00 | 0.00 | 0.00 | 27 | 1008.5 |
| 20260507213541 | 72 | 356 | 3.0 | 10.0 | 0.00 | 0.00 | 0.00 | 28 | 1008.5 |
| 20260507213040 | 72 | 278 | 5.0 | 10.0 | 0.00 | 0.00 | 0.00 | 26 | 1008.7 |
| 20260507212534 | 72 | 332 | 4.0 | 10.0 | 0.00 | 0.00 | 0.00 | 28 | 1008.5 |
| 20260507212050 | 72 | 256 | 4.0 | 11.0 | 0.00 | 0.00 | 0.00 | 26 | 1008.6 |
| 20260507211546 | 72 | 258 | 4.0 | 11.0 | 0.00 | 0.00 | 0.00 | 26 | 1008.6 |
| 20260507211043 | 72 | 293 | 5.0 | 11.0 | 0.00 | 0.00 | 0.00 | 27 | 1008.6 |
| 20260507210611 | 72 | 260 | 3.0 | 10.0 | 0.00 | 0.00 | 0.00 | 28 | 1008.6 |
| 20260507210046 | 72 | 237 | 5.0 | 10.0 | 0.00 | 0.00 | 0.00 | 26 | 1008.7 |
| 20260507205543 | 72 | 308 | 3.0 | 12.0 | 0.00 | 0.00 | 0.00 | 27 | 1008.7 |
| 20260507205038 | 73 | 268 | 4.0 | 12.0 | 0.00 | 0.00 | 0.00 | 27 | 1008.8 |
| 20260507204535 | 73 | 307 | 5.0 | 10.0 | 0.00 | 0.00 | 0.00 | 27 | 1008.8 |
| 20260507204051 | 72 | 305 | 4.0 | 8.0 | 0.00 | 0.00 | 0.00 | 26 | 1008.7 |
| 20260507203546 | 72 | 274 | 4.0 | 13.0 | 0.00 | 0.00 | 0.00 | 28 | 1008.9 |
| 20260507203104 | 72 | 279 | 6.0 | 11.0 | 0.00 | 0.00 | 0.00 | 28 | 1008.9 |
| 20260507202538 | 72 | 288 | 3.0 | 11.0 | 0.00 | 0.00 | 0.00 | 27 | 1008.9 |
| 20260507202032 | 72 | 285 | 6.0 | 11.0 | 0.00 | 0.00 | 0.00 | 28 | 1009.0 |
| 20260507201548 | 72 | 295 | 4.0 | 11.0 | 0.00 | 0.00 | 0.00 | 28 | 1008.9 |
| 20260507201044 | 73 | 332 | 4.0 | 14.0 | 0.00 | 0.00 | 0.00 | 31 | 1008.9 |
| 20260507200613 | 73 | 239 | 4.0 | 14.0 | 0.00 | 0.00 | 0.00 | 29 | 1009.0 |
| 20260507200111 | 73 | 238 | 4.0 | 16.0 | 0.00 | 0.00 | 0.00 | 32 | 1009.0 |
| 20260507195607 | 73 | 300 | 5.0 | 16.0 | 0.00 | 0.00 | 0.00 | 29 | 1009.0 |
| 20260507195040 | 72 | 321 | 4.0 | 11.0 | 0.00 | 0.00 | 0.00 | 29 | 1009.0 |
| 20260507194556 | 72 | 291 | 5.0 | 11.0 | 0.00 | 0.00 | 0.00 | 30 | 1009.0 |
| 20260507194051 | 73 | 337 | 5.0 | 11.0 | 0.00 | 0.00 | 0.00 | 30 | 1008.9 |
| 20260507193546 | 72 | 240 | 1.0 | 10.0 | 0.00 | 0.00 | 0.00 | 33 | 1008.9 |
| 20260507193042 | 72 | 265 | 6.0 | 10.0 | 0.00 | 0.00 | 0.00 | 31 | 1009.1 |
| 20260507192536 | 72 | 242 | 3.0 | 10.0 | 0.00 | 0.00 | 0.00 | 34 | 1009.0 |
| 20260507192036 | 71 | 243 | 3.0 | 11.0 | 0.00 | 0.00 | 0.00 | 33 | 1009.1 |
| 20260507191531 | 71 | 210 | 5.0 | 11.0 | 0.00 | 0.00 | 0.00 | 32 | 1009.1 |
| 20260507191047 | 72 | 304 | 5.0 | 8.0 | 0.00 | 0.00 | 0.00 | 34 | 1009.1 |
| 20260507190555 | 71 | 269 | 4.0 | 9.0 | 0.00 | 0.00 | 0.00 | 35 | 1009.2 |
| 20260507190032 | 70 | 276 | 3.0 | 8.0 | 0.00 | 0.00 | 0.00 | 34 | 1009.3 |
| 20260507185549 | 71 | 276 | 3.0 | 12.0 | 0.00 | 0.00 | 0.00 | 33 | 1009.4 |
| 20260507185043 | 71 | 209 | 5.0 | 12.0 | 0.00 | 0.00 | 0.00 | 32 | 1009.5 |
| 20260507184559 | 70 | 300 | 5.0 | 10.0 | 0.00 | 0.00 | 0.00 | 33 | 1009.6 |
| 20260507184032 | 70 | 226 | 4.0 | 10.0 | 0.00 | 0.00 | 0.00 | 33 | 1009.5 |
| 20260507183549 | 71 | 256 | 5.0 | 11.0 | 0.00 | 0.00 | 0.00 | 33 | 1009.7 |
| 20260507183045 | 71 | 300 | 5.0 | 12.0 | 0.00 | 0.00 | 0.00 | 34 | 1009.7 |
| 20260507182604 | 70 | 186 | 2.0 | 11.0 | 0.00 | 0.00 | 0.00 | 34 | 1009.7 |
| 20260507182037 | 69 | 262 | 5.0 | 11.0 | 0.00 | 0.00 | 0.00 | 35 | 1009.8 |
| 20260507181533 | 69 | 227 | 3.0 | 11.0 | 0.00 | 0.00 | 0.00 | 33 | 1009.9 |
| 20260507181049 | 69 | 264 | 6.0 | 11.0 | 0.00 | 0.00 | 0.00 | 34 | 1010.0 |
| 20260507180559 | 69 | 257 | 6.0 | 11.0 | 0.00 | 0.00 | 0.00 | 34 | 1010.0 |
| 20260507180033 | 69 | 267 | 6.0 | 11.0 | 0.00 | 0.00 | 0.00 | 33 | 1010.0 |
| 20260507175548 | 69 | 230 | 3.0 | 9.0 | 0.00 | 0.00 | 0.00 | 35 | 1010.0 |
| 20260507175044 | 69 | 5 | 6.0 | 12.0 | 0.00 | 0.00 | 0.00 | 33 | 1010.0 |
| 20260507174540 | 69 | 267 | 6.0 | 12.0 | 0.00 | 0.00 | 0.00 | 33 | 1010.3 |
| 20260507174039 | 69 | 308 | 6.0 | 12.0 | 0.00 | 0.00 | 0.00 | 32 | 1010.2 |
| 20260507173534 | 69 | 274 | 4.0 | 9.0 | 0.00 | 0.00 | 0.00 | 32 | 1010.1 |
| 20260507173031 | 69 | 278 | 5.0 | 10.0 | 0.00 | 0.00 | 0.00 | 32 | 1010.2 |
| 20260507172548 | 69 | 312 | 5.0 | 10.0 | 0.00 | 0.00 | 0.00 | 33 | 1010.3 |
| 20260507172104 | 68 | 204 | 5.0 | 10.0 | 0.00 | 0.00 | 0.00 | 33 | 1010.3 |
| 20260507171539 | 68 | 275 | 4.0 | 11.0 | 0.00 | 0.00 | 0.00 | 33 | 1010.4 |
| 20260507171035 | 68 | 163 | 6.0 | 13.0 | 0.00 | 0.00 | 0.00 | 33 | 1010.4 |
| 20260507170604 | 67 | 186 | 7.0 | 13.0 | 0.00 | 0.00 | 0.00 | 34 | 1010.6 |
| 20260507170041 | 66 | 233 | 4.0 | 13.0 | 0.00 | 0.00 | 0.00 | 33 | 1010.6 |
| 20260507165535 | 66 | 192 | 6.0 | 13.0 | 0.00 | 0.00 | 0.00 | 35 | 1010.7 |
| 20260507165048 | 66 | 228 | 5.0 | 10.0 | 0.00 | 0.00 | 0.00 | 35 | 1010.7 |
| 20260507164547 | 66 | 250 | 5.0 | 13.0 | 0.00 | 0.00 | 0.00 | 34 | 1010.8 |
| 20260507164043 | 66 | 216 | 7.0 | 13.0 | 0.00 | 0.00 | 0.00 | 37 | 1010.9 |
| 20260507163602 | 65 | 172 | 4.0 | 10.0 | 0.00 | 0.00 | 0.00 | 36 | 1011.0 |
| 20260507163038 | 65 | 276 | 4.0 | 10.0 | 0.00 | 0.00 | 0.00 | 38 | 1011.1 |
| 20260507162555 | 64 | 209 | 5.0 | 14.0 | 0.00 | 0.00 | 0.00 | 40 | 1011.2 |
| 20260507162051 | 64 | 159 | 6.0 | 14.0 | 0.00 | 0.00 | 0.00 | 40 | 1011.3 |
| 20260507161548 | 64 | 196 | 5.0 | 10.0 | 0.00 | 0.00 | 0.00 | 43 | 1011.3 |
| 20260507161046 | 63 | 234 | 2.0 | 10.0 | 0.00 | 0.00 | 0.00 | 43 | 1011.4 |
| 20260507160555 | 63 | 227 | 5.0 | 10.0 | 0.00 | 0.00 | 0.00 | 46 | 1011.5 |
| 20260507160034 | 62 | 238 | 5.0 | 9.0 | 0.00 | 0.00 | 0.00 | 46 | 1011.6 |
| 20260507155537 | 62 | 153 | 4.0 | 9.0 | 0.00 | 0.00 | 0.00 | 44 | 1011.7 |
| 20260507154543 | 62 | 212 | 4.0 | 11.0 | 0.00 | 0.00 | 0.00 | 49 | 1011.8 |
| 20260507154038 | 61 | 254 | 5.0 | 11.0 | 0.00 | 0.00 | 0.00 | 47 | 1011.8 |
| 20260507153536 | 61 | 212 | 4.0 | 7.0 | 0.00 | 0.00 | 0.00 | 50 | 1011.8 |
| 20260507153032 | 61 | 285 | 3.0 | 7.0 | 0.00 | 0.00 | 0.00 | 51 | 1011.8 |
| 20260507152548 | 60 | 231 | 3.0 | 9.0 | 0.00 | 0.00 | 0.00 | 52 | 1011.9 |
| 20260507152047 | 59 | 256 | 3.0 | 9.0 | 0.00 | 0.00 | 0.00 | 51 | 1012.0 |
| 20260507151535 | 59 | 269 | 4.0 | 9.0 | 0.00 | 0.00 | 0.00 | 52 | 1012.0 |
| 20260507151033 | 59 | 297 | 4.0 | 9.0 | 0.00 | 0.00 | 0.00 | 53 | 1011.9 |
| 20260507150603 | 58 | 260 | 4.0 | 11.0 | 0.00 | 0.00 | 0.00 | 53 | 1012.0 |
| 20260507150043 | 58 | 222 | 6.0 | 11.0 | 0.00 | 0.00 | 0.00 | 55 | 1012.1 |
| 20260507145540 | 58 | 262 | 2.0 | 8.0 | 0.00 | 0.00 | 0.00 | 57 | 1012.1 |
| 20260507145037 | 57 | 244 | 4.0 | 8.0 | 0.00 | 0.00 | 0.00 | 58 | 1012.2 |
| 20260507144532 | 57 | 257 | 3.0 | 8.0 | 0.00 | 0.00 | 0.00 | 58 | 1012.2 |
| 20260507144035 | 56 | 222 | 4.0 | 9.0 | 0.00 | 0.00 | 0.00 | 58 | 1012.3 |
| 20260507143042 | 55 | 272 | 3.0 | 8.0 | 0.00 | 0.00 | 0.00 | 62 | 1012.2 |
| 20260507142601 | 55 | 240 | 5.0 | 8.0 | 0.00 | 0.00 | 0.00 | 62 | 1012.4 |
| 20260507142039 | 55 | 226 | 4.0 | 7.0 | 0.00 | 0.00 | 0.00 | 63 | 1012.4 |
| 20260507141536 | 54 | 243 | 4.0 | 7.0 | 0.00 | 0.00 | 0.00 | 63 | 1012.4 |
| 20260507141034 | 54 | 255 | 3.0 | 7.0 | 0.00 | 0.00 | 0.00 | 64 | 1012.6 |
| 20260507140601 | 54 | 292 | 4.0 | 9.0 | 0.00 | 0.00 | 0.00 | 65 | 1012.6 |
| 20260507140041 | 53 | 262 | 4.0 | 9.0 | 0.00 | 0.00 | 0.00 | 66 | 1012.6 |
| 20260507135538 | 53 | 212 | 5.0 | 8.0 | 0.00 | 0.00 | 0.00 | 68 | 1012.7 |
| 20260507135037 | 52 | 246 | 3.0 | 8.0 | 0.00 | 0.00 | 0.00 | 68 | 1012.6 |
| 20260507134534 | 52 | 238 | 4.0 | 8.0 | 0.00 | 0.00 | 0.00 | 68 | 1012.6 |
| 20260507134032 | 51 | 230 | 3.0 | 7.0 | 0.00 | 0.00 | 0.00 | 70 | 1012.6 |
| 20260507133549 | 51 | 226 | 5.0 | 7.0 | 0.00 | 0.00 | 0.00 | 71 | 1012.6 |
| 20260507133046 | 50 | 251 | 3.0 | 6.0 | 0.00 | 0.00 | 0.00 | 73 | 1012.7 |
| 20260507132543 | 50 | 222 | 3.0 | 6.0 | 0.00 | 0.00 | 0.00 | 74 | 1012.7 |
| 20260507132045 | 49 | 217 | 3.0 | 6.0 | 0.00 | 0.00 | 0.00 | 74 | 1012.8 |
| 20260507131543 | 49 | 226 | 2.0 | 6.0 | 0.00 | 0.00 | 0.00 | 75 | 1012.7 |
| 20260507131100 | 48 | 240 | 2.0 | 5.0 | 0.00 | 0.00 | 0.00 | 76 | 1012.8 |
| 20260507130622 | 48 | 219 | 3.0 | 6.0 | 0.00 | 0.00 | 0.00 | 76 | 1012.9 |
| 20260507130044 | 47 | 219 | 4.0 | 6.0 | 0.00 | 0.00 | 0.00 | 77 | 1013.0 |
| 20260507125543 | 47 | 227 | 3.0 | 7.0 | 0.00 | 0.00 | 0.00 | 77 | 1013.0 |
| 20260507125059 | 47 | 253 | 3.0 | 6.0 | 0.00 | 0.00 | 0.00 | 78 | 1013.0 |
| 20260507124536 | 46 | 221 | 3.0 | 6.0 | 0.00 | 0.00 | 0.00 | 78 | 1013.0 |
| 20260507124032 | 46 | 223 | 2.0 | 7.0 | 0.00 | 0.00 | 0.00 | 78 | 1013.0 |
| 20260507123531 | 46 | 223 | 4.0 | 7.0 | 0.00 | 0.00 | 0.00 | 78 | 1012.9 |
| 20260507123047 | 46 | 221 | 3.0 | 7.0 | 0.00 | 0.00 | 0.00 | 79 | 1012.9 |
| 20260507122545 | 45 | 223 | 2.0 | 6.0 | 0.00 | 0.00 | 0.00 | 79 | 1012.9 |
| 20260507122104 | 45 | 224 | 1.0 | 4.0 | 0.00 | 0.00 | 0.00 | 79 | 1013.0 |
| 20260507121540 | 45 | 223 | 3.0 | 4.0 | 0.00 | 0.00 | 0.00 | 79 | 1013.0 |
| 20260507121037 | 45 | 223 | 2.0 | 5.0 | 0.00 | 0.00 | 0.00 | 79 | 1013.0 |
| 20260507120607 | 45 | 223 | 2.0 | 5.0 | 0.00 | 0.00 | 0.00 | 79 | 1013.0 |
| 20260507120043 | 45 | 223 | 2.0 | 4.0 | 0.00 | 0.00 | 0.00 | 79 | 1013.0 |
| 20260507115539 | 45 | 223 | 1.0 | 4.0 | 0.00 | 0.00 | 0.00 | 79 | 1012.9 |
| 20260507115035 | 45 | 223 | 2.0 | 5.0 | 0.00 | 0.00 | 0.00 | 78 | 1012.9 |
| 20260507114532 | 45 | 223 | 1.0 | 5.0 | 0.00 | 0.00 | 0.00 | 78 | 1012.9 |
| 20260507114049 | 45 | 224 | 2.0 | 3.0 | 0.00 | 0.00 | 0.00 | 78 | 1012.9 |
| 20260507113546 | 45 | 224 | 1.0 | 3.0 | 0.00 | 0.00 | 0.00 | 78 | 1012.9 |
| 20260507113040 | 45 | 224 | 2.0 | 4.0 | 0.00 | 0.00 | 0.00 | 78 | 1012.9 |
| 20260507112557 | 45 | 224 | 2.0 | 4.0 | 0.00 | 0.00 | 0.00 | 77 | 1012.9 |
| 20260507112034 | 45 | 224 | 2.0 | 5.0 | 0.00 | 0.00 | 0.00 | 77 | 1012.9 |
| 20260507111534 | 45 | 224 | 2.0 | 5.0 | 0.00 | 0.00 | 0.00 | 77 | 1012.9 |
| 20260507111031 | 46 | 224 | 3.0 | 5.0 | 0.00 | 0.00 | 0.00 | 77 | 1012.9 |
| 20260507110558 | 46 | 224 | 3.0 | 8.0 | 0.00 | 0.00 | 0.00 | 76 | 1012.9 |
| 20260507110036 | 46 | 223 | 4.0 | 8.0 | 0.00 | 0.00 | 0.00 | 76 | 1012.9 |
| 20260507105534 | 46 | 226 | 3.0 | 7.0 | 0.00 | 0.00 | 0.00 | 76 | 1012.8 |
| 20260507105032 | 46 | 225 | 3.0 | 5.0 | 0.00 | 0.00 | 0.00 | 76 | 1012.8 |
| 20260507104550 | 46 | 225 | 3.0 | 5.0 | 0.00 | 0.00 | 0.00 | 75 | 1012.8 |
| 20260507104048 | 46 | 225 | 3.0 | 7.0 | 0.00 | 0.00 | 0.00 | 75 | 1012.8 |
| 20260507103546 | 46 | 228 | 4.0 | 7.0 | 0.00 | 0.00 | 0.00 | 75 | 1012.8 |
| 20260507103046 | 46 | 231 | 3.0 | 5.0 | 0.00 | 0.00 | 0.00 | 75 | 1012.8 |
| 20260507102541 | 47 | 231 | 4.0 | 5.0 | 0.00 | 0.00 | 0.00 | 75 | 1012.7 |
| 20260507102058 | 47 | 231 | 3.0 | 5.0 | 0.00 | 0.00 | 0.00 | 75 | 1012.8 |
| 20260507101534 | 47 | 224 | 3.0 | 6.0 | 0.00 | 0.00 | 0.00 | 74 | 1012.8 |
| 20260507101051 | 47 | 224 | 3.0 | 6.0 | 0.00 | 0.00 | 0.00 | 74 | 1012.8 |
| 20260507100557 | 47 | 224 | 3.0 | 6.0 | 0.00 | 0.00 | 0.00 | 74 | 1012.8 |
| 20260507100035 | 47 | 223 | 3.0 | 6.0 | 0.00 | 0.00 | 0.00 | 74 | 1012.9 |
| 20260507095532 | 47 | 219 | 3.0 | 5.0 | 0.00 | 0.00 | 0.00 | 74 | 1013.0 |
| 20260507095048 | 47 | 219 | 3.0 | 6.0 | 0.00 | 0.00 | 0.00 | 73 | 1013.0 |
| 20260507094546 | 47 | 218 | 3.0 | 5.0 | 0.00 | 0.00 | 0.00 | 73 | 1013.1 |
| 20260507094048 | 47 | 218 | 3.0 | 5.0 | 0.00 | 0.00 | 0.00 | 73 | 1013.1 |
| 20260507093545 | 47 | 214 | 3.0 | 4.0 | 0.00 | 0.00 | 0.00 | 72 | 1013.2 |
| 20260507093044 | 47 | 214 | 3.0 | 5.0 | 0.00 | 0.00 | 0.00 | 72 | 1013.2 |
| 20260507092541 | 47 | 213 | 3.0 | 5.0 | 0.00 | 0.00 | 0.00 | 72 | 1013.3 |
| 20260507092039 | 47 | 213 | 3.0 | 5.0 | 0.00 | 0.00 | 0.00 | 72 | 1013.3 |
| 20260507091556 | 47 | 212 | 3.0 | 5.0 | 0.00 | 0.00 | 0.00 | 71 | 1013.3 |
| 20260507091033 | 47 | 212 | 3.0 | 6.0 | 0.00 | 0.00 | 0.00 | 71 | 1013.4 |
| 20260507090600 | 47 | 212 | 3.0 | 6.0 | 0.00 | 0.00 | 0.00 | 70 | 1013.4 |
| 20260507090040 | 47 | 209 | 3.0 | 5.0 | 0.00 | 0.00 | 0.00 | 70 | 1013.5 |
| 20260507085538 | 47 | 207 | 3.0 | 4.0 | 0.00 | 0.00 | 0.00 | 69 | 1013.6 |
| 20260507085036 | 47 | 207 | 3.0 | 4.0 | 0.00 | 0.00 | 0.00 | 69 | 1013.6 |
| 20260507084553 | 47 | 207 | 2.0 | 5.0 | 0.00 | 0.00 | 0.00 | 68 | 1013.7 |
| 20260507084047 | 46 | 206 | 3.0 | 5.0 | 0.00 | 0.00 | 0.00 | 68 | 1013.7 |
| 20260507083546 | 46 | 205 | 2.0 | 4.0 | 0.00 | 0.00 | 0.00 | 67 | 1013.8 |
| 20260507083043 | 46 | 205 | 3.0 | 4.0 | 0.00 | 0.00 | 0.00 | 67 | 1013.8 |